Regional Weather Roundup
Issued by NWS Sioux Falls, SD

Home | Current Version | Previous Version | Text Only | Print | Product List | Glossary On
Versions: 1 2 3 4 5 6 7 8 9 10 11 12 13 14 15 16 17 18 19 20 21 22 23 24 25 26 27 28 29 30 31 32 33 34 35 36 37 38 39 40 41 42 43 44 45 46 47 48 49 50
000
ASUS43 KFSD 030002
RWRFSD

WEATHER ROUNDUP FOR SE SOUTH DAKOTA/SW MINNESOTA/NW IOWA
NATIONAL WEATHER SERVICE SIOUX FALLS SD
700 PM CDT THU JUL 02 2015

NOTE: "FAIR" INDICATES FEW OR NO CLOUDS BELOW 12,000 FEET WITH NO
SIGNIFICANT WEATHER AND OR OBSTRUCTIONS TO VISIBILITY.


SDZ038>040-050-052>070-030100-
SOUTHEAST SOUTH DAKOTA

CITY           SKY/WX    TMP DP  RH WIND       PRES   REMARKS
BROOKINGS      PTSUNNY   72  52  49 S7        30.00F
CHAMBERLAIN    MOSUNNY   71  65  81 E8        29.98R
6HR MIN TEMP:  69; 6HR MAX TEMP:  75; 6HR PCP:  0.01;

HURON          SUNNY     70  59  68 S10       29.96F
6HR MIN TEMP:  63; 6HR MAX TEMP:  73; 6HR PCP:  0.04;

MADISON        FAIR      68  55  64 S6        29.99F
MITCHELL       PTSUNNY   69  59  70 E8        29.98F
6HR MIN TEMP:  68; 6HR MAX TEMP:  72;

SIOUX FALLS    CLOUDY    69  57  65 E3        29.98F
6HR MIN TEMP:  68; 6HR MAX TEMP:  72; 6HR PCP:  0.01;

WINNER         FAIR      77  61  57 NE9       29.98R
YANKTON        PTSUNNY   68  61  77 SE7       29.96F
$$

MNZ071-072-080-081-089-090-097-098-030100-
SOUTHWEST MINNESOTA

CITY           SKY/WX    TMP DP  RH WIND       PRES   REMARKS
FAIRMONT       MOSUNNY   72  45  37 S5        29.99S
JACKSON        PTSUNNY   72  50  46 S6        30.00F
LUVERNE        CLOUDY    70  54  56 E5        30.00S
MARSHALL       PTSUNNY   73  48  40 SE3       29.97F
6HR MIN TEMP:  70; 6HR MAX TEMP:  73;

MONTEVIDEO     MOSUNNY   73  54  49 S6        29.98F
PIPESTONE      CLOUDY    70  54  56 S5        30.00S
REDWOOD FALLS  PTSUNNY   74  49  41 SE3       29.98F
TRACY          PTSUNNY   72  54  52 CALM      29.99S
WINDOM         PTSUNNY   72  46  40 CALM      29.99F
WORTHINGTON    CLOUDY    68  48  49 SE5       30.00S
$$

IAZ001>003-012>014-020>022-031-032-NEZ013-014-SDZ071-030100-
NORTHWEST IOWA

CITY           SKY/WX    TMP DP  RH WIND       PRES   REMARKS
DENISON        CLOUDY    64  61  88 E8        29.96S
ESTHERVILLE    PTSUNNY   68  55  63 S7        29.99F
SIOUX CITY     CLOUDY    68  60  75 E8        29.97F
6HR MIN TEMP:  67; 6HR MAX TEMP:  70; 6HR PCP:  0.01;

SPENCER        CLOUDY    69  52  54 SE7       29.99F
6HR MIN TEMP:  69; 6HR MAX TEMP:  72;

$$

ABBREVIATIONS USED IN REMARKS
   TC - TEMPERATURE IN CELSIUS
  WCI - WIND CHILL INDEX
   HX - HEAT INDEX
  VSB - VISIBILITY




USA.gov is the U.S. government's official web portal to all federal, state and local government web resources and services.